• In Belarus
  • List of Countries
  • For 7 days
  • Water Temperature
  • Satellite Maps
  • Weather Map
  • Weather Widgets
  • user-avatar
    Login

    Hourly Weather Tirana

    Today, 12 December, Tuesday

    Time Temperature Precipitation Wind Pressure Humidity
    00:00 +9°C° 0 mm 8 mps 756 mmHg 80%
    01:00 +9°C° 0 mm 8 mps 756 mmHg 84%
    02:00 +9°C° 0 mm 8 mps 756 mmHg 84%
    03:00 +9°C° 0 mm 7 mps 756 mmHg 84%
    04:00 +9°C° 0 mm 7 mps 756 mmHg 84%
    05:00 +9°C° 0 mm 7 mps 756 mmHg 84%
    06:00 +9°C° 0 mm 7 mps 756 mmHg 84%
    07:00 +10°C° 0 mm 7 mps 756 mmHg 86%
    08:00 +11°C° 0 mm 7 mps 756 mmHg 84%
    09:00 +12°C° 0 mm 7 mps 756 mmHg 81%
    10:00 +14°C° 0 mm 7 mps 757 mmHg 79%
    11:00 +15°C° 0 mm 7 mps 757 mmHg 77%
    12:00 +15°C° 0 mm 7 mps 757 mmHg 75%
    13:00 +16°C° 0 mm 7 mps 757 mmHg 73%
    14:00 +15°C° 0 mm 7 mps 757 mmHg 77%
    15:00 +14°C° 0 mm 7 mps 757 mmHg 81%
    16:00 +13°C° 0 mm 6 mps 757 mmHg 84%
    17:00 +13°C° 0 mm 6 mps 757 mmHg 85%
    18:00 +11°C° 0 mm 6 mps 757 mmHg 86%
    19:00 +11°C° 0 mm 6 mps 757 mmHg 87%
    20:00 +11°C° 0 mm 6 mps 758 mmHg 87%
    21:00 +10°C° 0 mm 6 mps 758 mmHg 86%
    22:00 +10°C° 0 mm 5 mps 758 mmHg 86%
    23:00 +10°C° 0 mm 5 mps 758 mmHg 86%

    Tomorrow, 13 December, Wednesday

    Time Temperature Precipitation Wind Pressure Humidity
    00:00 +10°C° 0 mm 6 mps 758 mmHg 86%
    01:00 +10°C° 0 mm 6 mps 758 mmHg 86%
    02:00 +10°C° 0 mm 6 mps 758 mmHg 86%
    03:00 +10°C° 0 mm 6 mps 758 mmHg 86%
    04:00 +9°C° 0 mm 6 mps 757 mmHg 86%
    05:00 +9°C° 0 mm 6 mps 757 mmHg 86%
    06:00 +9°C° 0 mm 6 mps 757 mmHg 86%
    07:00 +9°C° 0 mm 6 mps 757 mmHg 86%
    08:00 +11°C° 0 mm 6 mps 757 mmHg 81%
    09:00 +13°C° 0 mm 6 mps 757 mmHg 76%
    10:00 +15°C° 0 mm 7 mps 757 mmHg 72%
    11:00 +15°C° 0 mm 7 mps 757 mmHg 69%
    12:00 +16°C° 0 mm 7 mps 756 mmHg 67%
    13:00 +16°C° 0 mm 8 mps 756 mmHg 64%
    14:00 +15°C° 0.2 mm 7 mps 755 mmHg 69%
    15:00 +14°C° 0.2 mm 7 mps 755 mmHg 74%
    16:00 +12°C° 0.2 mm 7 mps 755 mmHg 80%
    17:00 +12°C° 0.5 mm 7 mps 755 mmHg 81%
    18:00 +11°C° 0.5 mm 7 mps 755 mmHg 83%
    19:00 +11°C° 0.5 mm 7 mps 755 mmHg 85%
    20:00 +11°C° 1.7 mm 7 mps 755 mmHg 87%
    21:00 +11°C° 1.7 mm 6 mps 755 mmHg 90%
    22:00 +10°C° 1.7 mm 6 mps 755 mmHg 93%
    23:00 +10°C° 1.6 mm 6 mps 755 mmHg 94%

    Day after tomorrow, 14 December, Thursday

    Time Temperature Precipitation Wind Pressure Humidity
    00:00 +10°C° 1.6 mm 6 mps 755 mmHg 95%
    01:00 +10°C° 1.6 mm 6 mps 755 mmHg 96%
    02:00 +10°C° 0.2 mm 5 mps 755 mmHg 95%
    03:00 +9°C° 0.2 mm 5 mps 754 mmHg 95%
    04:00 +10°C° 0.2 mm 4 mps 754 mmHg 94%
    05:00 +10°C° 0.1 mm 4 mps 755 mmHg 93%
    06:00 +9°C° 0.1 mm 3 mps 755 mmHg 92%
    07:00 +9°C° 0.1 mm 3 mps 756 mmHg 90%
    08:00 +10°C° 0.1 mm 3 mps 756 mmHg 85%
    09:00 +11°C° 0.1 mm 3 mps 756 mmHg 79%
    10:00 +11°C° 0.1 mm 3 mps 756 mmHg 73%
    11:00 +12°C° 0.1 mm 2 mps 756 mmHg 72%
    12:00 +13°C° 0.1 mm 2 mps 756 mmHg 70%
    13:00 +13°C° 0.1 mm 2 mps 755 mmHg 69%
    14:00 +12°C° 0 mm 2 mps 755 mmHg 72%
    15:00 +12°C° 0 mm 2 mps 755 mmHg 76%
    16:00 +10°C° 0 mm 2 mps 755 mmHg 79%
    17:00 +10°C° 0 mm 3 mps 755 mmHg 80%
    18:00 +9°C° 0 mm 3 mps 756 mmHg 82%
    19:00 +8°C° 0 mm 4 mps 756 mmHg 83%
    20:00 +8°C° 0 mm 4 mps 756 mmHg 82%
    21:00 +7°C° 0 mm 4 mps 756 mmHg 81%
    22:00 +7°C° 0 mm 5 mps 756 mmHg 81%
    23:00 +7°C° 0 mm 5 mps 755 mmHg 79%

    15 December, Friday

    Time Temperature Precipitation Wind Pressure Humidity
    00:00 +7°C° 0 mm 5 mps 755 mmHg 76%
    01:00 +7°C° 0 mm 5 mps 755 mmHg 74%
    02:00 +7°C° 0 mm 5 mps 754 mmHg 74%
    03:00 +7°C° 0 mm 5 mps 754 mmHg 74%
    04:00 +7°C° 0 mm 6 mps 753 mmHg 74%
    05:00 +7°C° 0.2 mm 6 mps 753 mmHg 75%
    06:00 +8°C° 0.2 mm 6 mps 753 mmHg 76%
    07:00 +8°C° 0.2 mm 7 mps 753 mmHg 76%
    08:00 +9°C° 0.2 mm 7 mps 753 mmHg 76%
    09:00 +10°C° 0.2 mm 8 mps 753 mmHg 75%
    10:00 +10°C° 0.2 mm 8 mps 753 mmHg 75%
    11:00 +11°C° 0.1 mm 9 mps 752 mmHg 76%
    12:00 +12°C° 0.1 mm 9 mps 752 mmHg 77%
    13:00 +12°C° 0.1 mm 10 mps 751 mmHg 78%
    14:00 +12°C° 0.1 mm 9 mps 751 mmHg 80%
    15:00 +12°C° 0.1 mm 9 mps 751 mmHg 82%
    16:00 +11°C° 0.1 mm 9 mps 751 mmHg 85%
    17:00 +11°C° 0 mm 9 mps 750 mmHg 85%
    18:00 +10°C° 0 mm 9 mps 750 mmHg 85%
    19:00 +10°C° 0 mm 9 mps 750 mmHg 86%
    20:00 +8°C° 0 mm 9 mps 750 mmHg 85%
    21:00 +8°C° 0 mm 9 mps 750 mmHg 84%
    22:00 +9°C° 0 mm 8 mps 750 mmHg 83%
    23:00 +8°C° 0.1 mm 9 mps 750 mmHg 84%

    16 December, Saturday

    Time Temperature Precipitation Wind Pressure Humidity
    00:00 +10°C° 0.1 mm 9 mps 750 mmHg 84%
    01:00 +10°C° 0.1 mm 9 mps 749 mmHg 85%
    02:00 +10°C° 0.1 mm 9 mps 749 mmHg 86%
    03:00 +10°C° 0.1 mm 9 mps 749 mmHg 87%
    04:00 +10°C° 0.1 mm 9 mps 748 mmHg 88%
    05:00 +10°C° 0.5 mm 9 mps 748 mmHg 88%
    06:00 +10°C° 0.5 mm 8 mps 748 mmHg 88%
    07:00 +10°C° 0.5 mm 8 mps 748 mmHg 89%
    08:00 +11°C° 0.9 mm 8 mps 748 mmHg 86%
    09:00 +12°C° 0.9 mm 9 mps 748 mmHg 83%
    10:00 +13°C° 0.9 mm 9 mps 749 mmHg 80%
    11:00 +13°C° 0.9 mm 8 mps 748 mmHg 82%
    12:00 +12°C° 0.9 mm 7 mps 748 mmHg 84%
    13:00 +13°C° 0.9 mm 6 mps 748 mmHg 86%
    14:00 +12°C° 2 mm 5 mps 747 mmHg 88%
    15:00 +12°C° 2 mm 5 mps 747 mmHg 91%
    16:00 +11°C° 2 mm 4 mps 747 mmHg 93%
    17:00 +11°C° 2.7 mm 4 mps 747 mmHg 93%
    18:00 +11°C° 2.7 mm 3 mps 747 mmHg 93%
    19:00 +12°C° 2.7 mm 2 mps 747 mmHg 93%
    20:00 +12°C° 1.6 mm 2 mps 747 mmHg 93%
    21:00 +12°C° 1.6 mm 2 mps 746 mmHg 93%
    22:00 +12°C° 1.6 mm 1 mps 746 mmHg 92%
    23:00 +10°C° 1.5 mm 2 mps 746 mmHg 93%

    17 December, Sunday

    Time Temperature Precipitation Wind Pressure Humidity
    00:00 +10°C° 1.5 mm 3 mps 746 mmHg 94%
    01:00 +10°C° 1.5 mm 4 mps 746 mmHg 95%
    02:00 +10°C° 1.1 mm 4 mps 746 mmHg 95%
    03:00 +8°C° 1.1 mm 4 mps 746 mmHg 95%
    04:00 +8°C° 1.1 mm 4 mps 747 mmHg 96%
    05:00 +8°C° 0.6 mm 4 mps 748 mmHg 95%
    06:00 +8°C° 0.6 mm 4 mps 748 mmHg 93%
    07:00 +9°C° 0.6 mm 3 mps 749 mmHg 92%
    08:00 +9°C° 0.3 mm 3 mps 750 mmHg 87%
    09:00 +10°C° 0.3 mm 3 mps 751 mmHg 82%
    10:00 +10°C° 0.3 mm 3 mps 751 mmHg 77%
    11:00 +10°C° 0.3 mm 3 mps 751 mmHg 75%
    12:00 +11°C° 0.3 mm 4 mps 751 mmHg 73%
    13:00 +11°C° 0.3 mm 4 mps 752 mmHg 71%
    14:00 +10°C° 0.1 mm 3 mps 752 mmHg 74%
    15:00 +9°C° 0.1 mm 3 mps 753 mmHg 77%
    16:00 +9°C° 0.1 mm 3 mps 753 mmHg 80%
    17:00 +8°C° 0 mm 3 mps 754 mmHg 82%
    18:00 +7°C° 0 mm 3 mps 754 mmHg 83%
    19:00 +7°C° 0 mm 2 mps 755 mmHg 85%
    20:00 +5°C° 0 mm 3 mps 755 mmHg 84%
    21:00 +5°C° 0 mm 3 mps 756 mmHg 84%
    22:00 +5°C° 0 mm 3 mps 756 mmHg 83%
    23:00 +5°C° 0 mm 3 mps 756 mmHg 82%
    Show more